User: anonymous   Login
Location: Norwich
(52.6280°N, 1.3030°E)
Time: 13:08:32
(UTC+01:00)
Language:

Meteor 1-22 Rocket - Orbit

View from above orbital plane
View from above orbital plane
View from above satellite
View from above satellite

Ground track
Ground track

The orbit data is extracted from the following two-line orbital elements,

1  8294U 75087B   17232.78782966 +.00000088 +00000-0 +42396-4 0  9992
2  8294 081.2108 319.5777 0104148 219.7549 139.5958 14.08562522153698
Epoch (UTC): 20 August 2017 18:54:28
Eccentricity: 0.0104148
inclination: 81.2108°
perigee height: 789 km
apogee height: 940 km
right ascension of ascending node: 319.5777°
argument of perigee: 219.7549°
revolutions per day: 14.08562522
mean anomaly at epoch: 139.5958°
orbit number at epoch: 15369

The dashed part of the orbit path shows where the satellite is in the earth's shadow,  

DLR